User: anonymous   Login
Location: Newark
(47.9297°N, 19.1367°E)
Time: 03:24:16
(UTC+00:00)
Language:

NANOSAT C BR1 - Orbit

View from above orbital plane
View from above orbital plane
View from above satellite
View from above satellite

Ground track
Ground track

The orbit data is extracted from the following two-line orbital elements,

1 40024U 14033Q   20329.05090542 +.00000643 +00000-0 +72175-4 0  9991
2 40024 097.9357 257.1795 0013268 122.4208 237.8295 14.90202208349007
Epoch (UTC): 24 November 2020 01:13:18
Eccentricity: 0.0013268
inclination: 97.9357°
perigee height: 588 km
apogee height: 606 km
right ascension of ascending node: 257.1795°
argument of perigee: 122.4208°
revolutions per day: 14.90202208
mean anomaly at epoch: 237.8295°
orbit number at epoch: 34900

The dashed part of the orbit path shows where the satellite is in the earth's shadow,  

DLR